SL-8 DEB, 1617

Orbit data source: Space-Track

SL-8 DEB, 1617 is space debris in LEO originally from a launch on Sat, 18 Sep 1965 UTC launched from the Tyuratam Missile And Space Complex (TTMTR). Debris objects in space refer to the collection of defunct objects orbiting the Earth. Examples of debris include non-operational satellites, rocket bodies, and fragments generated from explosions, collisions, or faulty payload assembly.

Loading next visibility...
Identifier
1617, 1965-073J
Orbit
LEO
Last TLE update
1 day ago
Origin
Manufacturer
Unknown
Mission
Spacecraft
Bus & Motor
Unknown
Mass
Unknown
Launch date (UTC)
1965-09-18 (60 years ago)
Launch vehicle
Unknown
Launch site
Tyuratam Missile And Space Complex (TTMTR)
Object type
Payload
Rocket body
Debris
Shape & HBR
Unknown
Radar Cross Section
Medium (>0.1 m² and <1 m²)

Expand to show TLE details & history

TLE from 1 day ago
0 SL-8 DEB
1 01617U 65073J   25128.14353392  .00001094  00000-0  86684-2 0  9992
2 01617  56.1303  46.6176 0232615 140.8244 337.0735 12.34663357680414
Epoch: 2025-05-08T03:26Z
Definitive object data (Epoch: 2025-05-08T03:26:41.33Z)
Latitude
47.93571°
Longitude
-99.00919°
Altitude
1,366.303 km
Speed
7.257 km/s
True Right ascension
11h 55m 31s
True Declination
47° 46' 41"
Sunlit
Object was in daylight at TLE epoch
Visualization TLE readout
Latitude
15.14148°
Longitude
-64.46735°
Altitude
1,355.784 km
Speed
7.261 km/s
Apparent Right ascension
16h 03m 29s
Apparent Declination
-33° 16' 52"
Sunlit
Object is in full shadow
Visualization observer readout
Local Sidereal Time
13:04:55
Azimuth
143.798° SSE
Elevation
5.976°
Doppler factor
1
Orbital elements
Apogee altitude
1,713.057 km
Perigee altitude
1,345.187 km
Semi-major axis
7,907.259 km
Eccentricity
0.0232615
Inclination
56.1303°
RAAN
46.6176°
Arg. of periapsis
140.8244°
True anomaly
336.00665°
Mean anomaly
337.0735°
Eccentric anomaly
336.54297°
Mean motion
3.08677 °/min
BSTAR
0.0086684
Orbital period
116.63 mins
Loading maneuver chart data...
Loading SW <> Apogee altitude chart data...
Loading historical data...
Loading historical data...
Loading historical data...
Loading historical data...
Loading historical data...
Loading historical data...
Loading historical data...

SL-8 DEB Visibility forecast

Observer location: undefined°, undefined°

Span
Click to sort rows by Start time (UTC) header in descending order
Start Az.
Max El. time (UTC)
Max El. Az.
Max El.
End time (UTC)
End Az.
8 mins2025-05-09 06:43:20.604Z278.608° WNW2025-05-09 06:47:20.604Z247.928° W15.654°2025-05-09 06:51:20.604Z216.455° SW
15 mins2025-05-09 19:44:20.604Z192.103° SSW2025-05-09 19:51:20.604Z133.352° SE37.282°2025-05-09 19:59:20.604Z56.008° ENE
15 mins2025-05-09 21:46:20.604Z251.216° W2025-05-09 21:53:20.604Z315.381° NNW39.353°2025-05-09 22:01:20.604Z39.516° NE
13 mins2025-05-09 23:51:20.604Z298.943° NW2025-05-09 23:57:20.604Z347.9° N25.364°2025-05-10 00:04:20.604Z46.049° ENE
12 mins2025-05-10 01:56:20.604Z325.35° NNW2025-05-10 02:02:20.604Z22.608° NE28.343°2025-05-10 02:08:20.604Z76.72° E
14 mins2025-05-10 03:58:20.604Z316.672° NNW2025-05-10 04:05:20.604Z73.653° E44.585°2025-05-10 04:12:20.604Z131.465° SE
|